GW3984 Weather Reports


Display with metric or nautical units.
time (UTC)temp
F
wind
direction
speed
MPH
gust
MPH
rain 1hr
in
rain 24hr
in
rain mn
in
humidity
%
barometer
mb
20260508083401 61 27 0.0 1.0 0.00 0.00 0.00 86 1013.9
20260508083019 60 26 0.0 2.0 0.00 0.00 0.00 86 1014.9
20260508082353 61 23 0.0 1.0 0.00 0.00 0.00 86 1013.6
20260508081523 60 321 0.0 1.0 0.00 0.00 0.00 86 1014.7
20260508081323 61 322 0.0 0.0 0.00 0.00 0.00 87 1014.0
20260508080254 60 229 0.0 0.0 0.00 0.00 0.00 88 1013.7
20260508080017 60 227 0.0 0.0 0.00 0.00 0.00 88 1014.4
20260508075316 61 229 0.0 0.0 0.00 0.00 0.00 86 1014.2
20260508074513 61 227 0.0 0.0 0.00 0.00 0.00 81 1015.1
20260508074248 62 229 0.0 0.0 0.00 0.00 0.00 81 1014.5
20260508073029 62 227 0.0 0.0 0.00 0.00 0.00 76 1015.1
20260508072111 63 229 0.0 0.0 0.00 0.00 0.00 76 1014.6
20260508071529 63 227 0.0 0.0 0.00 0.00 0.00 75 1015.4
20260508071118 63 229 0.0 0.0 0.00 0.00 0.00 75 1014.6
20260508070108 63 229 0.0 0.0 0.00 0.00 0.00 76 1014.5
20260508070028 62 227 0.0 0.0 0.00 0.00 0.00 75 1015.1
20260508065033 63 229 0.0 0.0 0.00 0.00 0.00 75 1014.7
20260508064525 63 227 0.0 2.0 0.00 0.00 0.00 74 1015.6
20260508064010 63 229 0.0 0.0 0.00 0.00 0.00 74 1014.8
20260508063006 62 173 0.0 2.0 0.00 0.00 0.00 74 1015.0
20260508062940 63 172 0.0 0.0 0.00 0.00 0.00 75 1014.3
20260508061937 63 170 0.0 0.0 0.00 0.00 0.00 75 1013.6
20260508061507 62 150 0.0 2.0 0.00 0.00 0.00 76 1014.3
20260508060959 63 139 0.0 0.0 0.00 0.00 0.00 76 1013.9
20260508060019 63 228 0.0 2.0 0.00 0.00 0.00 75 1015.5
20260508060006 63 230 0.0 0.0 0.00 0.00 0.00 76 1014.8
20260508054955 63 143 0.0 0.0 0.00 0.00 0.00 76 1014.7
20260508054521 63 157 0.0 2.0 0.00 0.00 0.00 75 1015.5
20260508053922 63 167 0.0 0.0 0.00 0.00 0.00 76 1015.4
20260508053016 63 196 0.0 2.0 0.00 0.00 0.00 75 1015.8
20260508052902 63 217 0.0 1.0 0.00 0.00 0.00 76 1015.2
20260508051921 63 283 0.0 1.0 0.00 0.00 0.00 76 1015.2
20260508051521 63 156 0.0 2.0 0.00 0.00 0.00 75 1015.4
20260508050923 63 162 0.0 1.0 0.00 0.00 0.00 75 1015.0
20260508050012 63 300 0.0 2.0 0.00 0.00 0.00 74 1016.1
20260508045942 63 305 0.0 0.0 0.00 0.00 0.00 74 1015.3
20260508044931 63 24 0.0 1.0 0.00 0.00 0.00 75 1015.6
20260508044506 62 258 0.0 2.0 0.00 0.00 0.00 75 1015.9
20260508043900 62 317 0.0 0.0 0.00 0.00 0.00 77 1015.4
20260508043006 61 161 0.0 0.0 0.00 0.00 0.00 76 1014.6
20260508042915 62 160 0.0 0.0 0.00 0.00 0.00 77 1014.0
20260508041911 62 172 0.0 0.0 0.00 0.00 0.00 77 1013.5
20260508041523 62 144 0.0 0.0 0.00 0.00 0.00 77 1014.1
20260508040902 62 145 0.0 0.0 0.00 0.00 0.00 77 1013.5
20260508040021 62 110 0.0 0.0 0.00 0.00 0.00 76 1014.5
20260508035830 63 107 0.0 0.0 0.00 0.00 0.00 76 1013.9
20260508034841 63 68 0.0 0.0 0.00 0.00 0.00 77 1014.3
20260508034524 62 72 0.0 0.0 0.00 0.00 0.00 77 1015.2
20260508033017 63 9 0.0 0.0 0.00 0.00 0.00 74 1015.7
20260508032724 64 1 0.0 0.0 0.00 0.00 0.00 75 1015.1
20260508031659 64 2 0.0 0.0 0.00 0.00 0.00 75 1015.2
20260508031515 64 9 0.0 0.0 0.00 0.00 0.00 74 1015.8
20260508030656 64 328 0.0 0.0 0.00 0.00 0.00 74 1015.5
20260508030011 64 323 0.0 0.0 0.00 0.00 0.00 75 1016.2
20260508024548 65 338 0.0 0.0 0.00 0.00 0.00 72 1015.4
20260508024510 64 333 0.0 0.0 0.00 0.00 0.00 71 1016.0
20260508023529 65 359 0.0 0.0 0.00 0.00 0.00 72 1015.3
20260508023010 64 46 0.0 0.0 0.00 0.00 0.00 71 1015.9
20260508022526 64 82 0.0 0.0 0.00 0.00 0.00 73 1015.2
20260508021525 63 104 0.0 0.0 0.00 0.00 0.00 72 1015.5
20260508021500 64 101 0.0 0.0 0.00 0.00 0.00 72 1014.8
20260508020504 63 136 0.0 0.0 0.00 0.00 0.00 73 1014.1
20260508020021 63 140 0.0 0.0 0.00 0.00 0.00 73 1014.8
20260508015453 64 137 0.0 0.0 0.00 0.00 0.00 72 1014.0
20260508014522 64 312 0.0 2.0 0.00 0.00 0.00 70 1015.0
20260508013350 64 139 0.0 0.0 0.00 0.00 0.00 71 1013.5
20260508013016 64 163 0.0 2.0 0.00 0.00 0.00 70 1014.3
20260508012352 65 157 0.0 1.0 0.00 0.00 0.00 70 1013.4
20260508011537 64 167 0.0 3.0 0.00 0.00 0.00 69 1014.1
20260508011345 65 167 0.0 1.0 0.00 0.00 0.00 69 1013.4
20260508010358 65 144 0.0 1.0 0.00 0.00 0.00 66 1013.5
20260508010014 65 9 0.0 2.0 0.00 0.00 0.00 65 1014.2
20260508005332 65 293 0.0 9.0 0.00 0.00 0.00 65 1013.2
20260508004511 65 142 1.0 8.0 0.00 0.00 0.00 64 1012.7
20260508004348 65 51 1.0 9.0 0.00 0.00 0.00 64 1011.7
20260508003006 65 130 2.0 7.0 0.00 0.00 0.00 63 1012.6
20260508002255 66 191 0.0 5.0 0.00 0.00 0.00 64 1012.5
20260508001527 66 84 0.0 3.0 0.00 0.00 0.00 64 1013.9
20260508001307 67 137 0.0 0.0 0.00 0.00 0.00 65 1013.2
20260508000304 67 172 0.0 1.0 0.00 0.00 0.00 65 1014.0
20260508000023 67 313 0.0 3.0 0.00 0.00 0.00 64 1014.8
20260507235307 67 155 0.0 3.0 0.00 0.00 0.00 64 1013.9
20260507234523 67 140 2.0 3.0 0.00 0.00 0.00 62 1015.3
20260507234252 68 285 0.0 0.0 0.00 0.00 0.00 63 1014.8
20260507233301 68 174 0.0 2.0 0.00 0.00 0.00 62 1014.4
20260507233025 68 175 0.0 2.0 0.00 0.00 0.00 63 1015.2
20260507232231 70 219 0.0 1.0 0.00 0.00 0.00 60 1015.0
20260507231530 69 360 0.0 2.0 0.00 0.00 0.00 62 1015.7
20260507231204 69 359 0.0 1.0 0.00 0.00 0.00 62 1015.0
20260507230139 69 153 0.0 2.0 0.00 0.00 0.00 63 1015.2
20260507230014 68 148 0.0 4.0 0.00 0.00 0.00 62 1015.9
20260507225118 70 126 0.0 3.0 0.00 0.00 0.00 61 1015.1
20260507224512 71 144 0.0 4.0 0.00 0.00 0.00 61 1015.8
20260507224123 71 91 0.0 3.0 0.00 0.00 0.00 61 1015.2
20260507223012 69 173 1.0 4.0 0.00 0.00 0.00 61 1016.1
20260507221928 72 220 0.0 2.0 0.00 0.00 0.00 61 1015.2
20260507221525 70 290 1.0 3.0 0.00 0.00 0.00 63 1015.8
20260507220917 68 148 0.0 2.0 0.00 0.00 0.00 65 1015.2
20260507220027 68 133 0.0 3.0 0.00 0.00 0.00 64 1015.9
20260507215856 68 146 0.0 1.0 0.00 0.00 0.00 65 1015.4
20260507214834 69 325 0.0 1.0 0.00 0.00 0.00 64 1015.7
20260507214524 68 318 1.0 2.0 0.00 0.00 0.00 62 1016.3
20260507213816 69 331 0.0 1.0 0.00 0.00 0.00 63 1015.4
20260507213028 69 282 0.0 2.0 0.00 0.00 0.00 64 1016.1
20260507212800 70 281 0.0 1.0 0.00 0.00 0.00 64 1015.5
20260507211800 69 278 0.0 1.0 0.00 0.00 0.00 63 1016.0
20260507211522 69 137 1.0 2.0 0.00 0.00 0.00 62 1016.7
20260507210753 70 314 0.0 2.0 0.00 0.00 0.00 63 1016.0
20260507210018 69 325 0.0 5.0 0.00 0.00 0.00 64 1016.3
20260507204537 69 157 0.0 6.0 0.00 0.00 0.00 64 1015.4
20260507204517 69 163 1.0 8.0 0.00 0.00 0.00 64 1016.0
20260507203558 71 314 0.0 4.0 0.00 0.00 0.00 64 1015.5
20260507203014 70 309 0.0 4.0 0.00 0.00 0.00 65 1016.2
20260507202612 70 291 0.0 4.0 0.00 0.00 0.00 66 1015.6
20260507201538 71 208 0.0 2.0 0.00 0.00 0.00 66 1015.1
20260507201516 70 297 1.0 3.0 0.00 0.00 0.00 66 1015.8
20260507200527 69 272 0.0 2.0 0.00 0.00 0.00 68 1015.8
20260507200009 68 307 1.0 3.0 0.00 0.00 0.00 70 1016.1
20260507194511 67 337 0.0 3.0 0.00 0.00 0.00 73 1016.3
20260507194414 68 88 0.0 0.0 0.00 0.00 0.00 73 1015.6
20260507193410 68 344 0.0 3.0 0.00 0.00 0.00 74 1016.2
20260507193030 67 331 1.0 4.0 0.00 0.00 0.00 74 1016.8
20260507192350 66 290 0.0 1.0 0.00 0.00 0.00 79 1016.2
20260507191522 65 296 0.0 3.0 0.00 0.00 0.00 78 1016.5
20260507191344 66 295 0.0 4.0 0.00 0.00 0.00 78 1015.9
20260507190020 64 118 1.0 6.0 0.00 0.00 0.00 82 1016.4
20260507185133 64 290 0.0 1.0 0.00 0.00 0.00 86 1015.9
20260507184526 63 125 1.0 3.0 0.00 0.00 0.00 85 1016.6
20260507183055 62 54 0.0 2.0 0.00 0.00 0.00 86 1016.7
20260507183030 61 155 0.0 3.0 0.00 0.00 0.00 85 1017.4
20260507182026 62 282 0.0 2.0 0.00 0.00 0.00 85 1017.2
20260507181515 62 199 0.0 2.0 0.00 0.00 0.00 81 1017.8
20260507181041 63 343 0.0 1.0 0.00 0.00 0.00 78 1017.4
20260507180039 64 309 0.0 1.0 0.00 0.00 0.00 78 1017.5
20260507175012 64 298 0.0 1.0 0.00 0.00 0.00 76 1017.4
20260507174532 64 297 0.0 4.0 0.00 0.00 0.00 77 1018.0
20260507174032 65 248 0.0 4.0 0.00 0.00 0.00 77 1017.3
20260507173027 65 309 0.0 4.0 0.00 0.00 0.00 77 1017.2
20260507172007 65 352 0.0 3.0 0.00 0.00 0.00 77 1017.2
20260507171525 64 182 1.0 3.0 0.00 0.00 0.00 77 1017.7
20260507171022 64 27 0.0 3.0 0.00 0.00 0.00 79 1017.2
20260507170044 63 281 0.0 3.0 0.00 0.00 0.00 80 1017.3
20260507170023 62 307 0.0 4.0 0.00 0.00 0.00 80 1018.1
20260507165107 62 326 0.0 3.0 0.00 0.00 0.00 82 1017.4
20260507164520 61 216 1.0 2.0 0.00 0.00 0.00 82 1018.2
20260507164037 61 305 0.0 2.0 0.00 0.00 0.00 83 1017.6
20260507163057 60 245 0.0 0.0 0.00 0.00 0.00 83 1017.9
20260507163018 60 313 0.0 3.0 0.00 0.00 0.00 83 1018.6
20260507162120 60 321 0.0 4.0 0.00 0.00 0.00 84 1017.6
20260507161533 59 290 1.0 3.0 0.00 0.00 0.00 83 1018.4
20260507161126 60 312 0.0 4.0 0.00 0.00 0.00 84 1017.7
20260507160118 60 306 0.0 2.0 0.00 0.00 0.00 84 1017.5
20260507160016 59 360 1.0 4.0 0.00 0.00 0.00 84 1018.3
20260507155103 59 328 0.0 3.0 0.00 0.00 0.00 84 1017.6
20260507154512 59 310 1.0 4.0 0.00 0.00 0.00 84 1018.3
20260507154112 59 296 0.0 3.0 0.00 0.00 0.00 85 1017.5
20260507153135 59 320 0.0 3.0 0.00 0.00 0.00 85 1017.7
20260507153025 59 325 1.0 4.0 0.00 0.00 0.00 84 1018.4
20260507151537 58 319 1.0 4.0 0.00 0.00 0.00 85 1018.1
20260507151042 59 319 1.0 4.0 0.00 0.00 0.00 85 1017.5
20260507150049 59 261 0.0 3.0 0.00 0.00 0.00 85 1017.7
20260507150026 58 340 2.0 5.0 0.00 0.00 0.00 85 1018.3
20260507145040 59 339 0.0 3.0 0.00 0.00 0.00 87 1017.4
20260507144524 58 304 1.0 6.0 0.00 0.00 0.00 86 1018.1
20260507144056 59 302 0.0 3.0 0.00 0.00 0.00 87 1017.2
20260507143033 58 31 0.0 4.0 0.00 0.00 0.00 89 1016.9
20260507143023 58 294 1.0 4.0 0.00 0.00 0.00 89 1017.7
20260507142004 58 328 0.0 4.0 0.00 0.00 0.00 90 1017.6
20260507141520 58 154 1.0 6.0 0.00 0.00 0.00 89 1018.4
20260507140930 59 295 0.0 3.0 0.00 0.00 0.00 90 1017.5
20260507140020 58 293 0.0 2.0 0.00 0.00 0.00 89 1018.0
20260507135944 59 292 0.0 2.0 0.00 0.00 0.00 90 1017.2
20260507134932 59 325 0.0 2.0 0.00 0.00 0.00 89 1017.2
20260507134527 58 304 1.0 3.0 0.00 0.00 0.00 89 1018.0
20260507133917 59 330 0.0 3.0 0.00 0.00 0.00 89 1017.6
20260507133029 58 308 0.0 4.0 0.00 0.00 0.00 88 1018.2
20260507132928 59 302 0.0 3.0 0.00 0.00 0.00 88 1017.6
20260507131534 59 286 0.0 4.0 0.00 0.00 0.00 87 1017.9
20260507130827 59 306 0.0 3.0 0.00 0.00 0.00 87 1017.0
20260507130029 59 315 0.0 2.0 0.00 0.00 0.00 86 1017.7
20260507125826 59 298 0.0 1.0 0.00 0.00 0.00 87 1017.0
20260507124850 59 258 0.0 1.0 0.00 0.00 0.00 87 1016.9
20260507124523 59 250 1.0 4.0 0.00 0.00 0.00 86 1017.7
20260507123834 60 0 0.0 3.0 0.00 0.00 0.00 86 1017.0
20260507123013 59 314 1.0 3.0 0.00 0.00 0.00 85 1017.2
20260507122841 60 168 0.0 2.0 0.00 0.00 0.00 86 1016.3
20260507121849 60 311 0.0 1.0 0.00 0.00 0.00 85 1016.5
20260507121504 59 299 1.0 2.0 0.00 0.00 0.00 84 1017.1
20260507120910 60 306 0.0 1.0 0.00 0.00 0.00 85 1016.4
20260507120006 60 309 1.0 2.0 0.00 0.00 0.00 84 1017.0
20260507114504 60 304 1.0 6.0 0.00 0.00 0.00 84 1016.6
20260507113004 60 337 1.0 4.0 0.00 0.00 0.00 83 1016.3
20260507112432 61 319 0.0 2.0 0.00 0.00 0.00 84 1015.5
20260507111510 60 273 1.0 5.0 0.00 0.00 0.00 83 1016.2
20260507110005 60 295 1.0 2.0 0.00 0.00 0.00 82 1015.9
20260507105124 61 309 0.0 2.0 0.00 0.00 0.00 83 1015.2
20260507104507 61 284 1.0 3.0 0.00 0.00 0.00 83 1015.9
20260507104145 61 314 0.0 2.0 0.00 0.00 0.00 83 1015.2
20260507103209 61 320 0.0 2.0 0.00 0.00 0.00 83 1015.5
20260507103004 61 302 1.0 3.0 0.00 0.00 0.00 82 1016.2
20260507102202 62 307 0.0 1.0 0.00 0.00 0.00 82 1015.2
20260507101510 61 269 0.0 3.0 0.00 0.00 0.00 81 1015.7
20260507101200 62 297 0.0 2.0 0.00 0.00 0.00 82 1014.9
20260507100135 62 167 0.0 2.0 0.00 0.00 0.00 82 1015.0
20260507100007 61 294 0.0 3.0 0.00 0.00 0.00 81 1015.8
20260507095104 62 5 0.0 1.0 0.00 0.00 0.00 82 1015.0
20260507094507 61 269 0.0 2.0 0.00 0.00 0.00 81 1015.7
20260507094036 62 311 0.0 1.0 0.00 0.00 0.00 82 1015.0
20260507093042 62 66 0.0 3.0 0.00 0.00 0.00 82 1014.7
20260507093004 61 360 0.0 2.0 0.00 0.00 0.00 81 1015.4
20260507091504 61 269 0.0 1.0 0.00 0.00 0.00 81 1015.7
20260507090925 62 359 0.0 0.0 0.00 0.00 0.00 82 1014.9
20260507090008 62 328 0.0 2.0 0.00 0.00 0.00 81 1015.7
20260507085907 62 321 0.0 0.0 0.00 0.00 0.00 81 1014.9
20260507084920 62 302 0.0 1.0 0.00 0.00 0.00 81 1015.0
20260507084510 62 317 0.0 2.0 0.00 0.00 0.00 81 1015.7